Location: Boise
(43.6140°N, 116.2030°W)
Time: 17:18:00
(UTC-06:00)

Daily predictions for brighter satellites

Satellite Brightness Start Highest point End
(mag) Time Altitude Azimuth Time Altitude Azimuth Time Altitude Azimuth
DEBRIS 4.0 21:37:06 10° SSW 21:40:09 38° SE 21:48:27 10° ENE
Spot 1 4.2 21:36:41 10° SSE 21:41:17 74° ENE 21:45:37 10° N
Helios 1B rocket 2.5 21:37:16 10° NNE 21:41:21 58° ESE 21:45:25 10° S
Cosmos 2369 Rocket 3.3 21:36:02 10° NW 21:41:23 45° WSW 21:46:44 10° S
Aureole 3 Rocket 4.5 21:36:40 10° SSE 21:42:42 35° E 21:47:14 10° NNE
YAOGAN 6 3.3 21:40:49 10° SE 21:44:02 36° ENE 21:47:17 10° N
NOSS 2-2 (E) 4.0 21:41:14 10° S 21:44:55 36° ESE 21:49:05 10° NE
SAR-Lupe-4 3.6 21:42:11 10° SSE 21:45:44 73° ENE 21:49:19 10° N
Cosmos 1656 Rocket 4.0 21:40:33 10° NNW 21:45:51 50° ENE 21:51:09 10° SE
Meteor 1-29 3.1 21:43:20 10° NNE 21:46:39 50° E 21:49:55 10° S
NOSS 5 (C) 4.2 21:46:40 10° SSW 21:50:16 80° SE 21:53:22 10° NE
Cosmos 1939 Rocket 2.7 21:46:55 10° SSE 21:50:46 80° ENE 21:54:39 10° N
Cosmos 1500 3.4 21:49:53 10° NNW 21:53:39 71° W 21:57:23 10° S
COSMOS 2455 3.0 21:48:21 10° NNW 21:54:23 79° WSW 22:00:23 10° SSE
Cosmos 1437 3.0 21:51:48 10° S 21:54:54 49° E 21:58:02 10° NNE
Cosmos 1709 Rocket 4.4 21:49:47 10° NNW 21:56:03 70° W 22:02:11 10° S
Cosmos 1943 Rocket 2.7 21:54:32 10° NNW 22:00:03 59° WSW 22:05:30 10° S
OAO 2 Rocket 4.4 21:56:29 10° SW 22:00:25 24° SSE 22:04:25 10° ESE
Cosmos 1818 3.5 21:57:07 10° SSW 22:02:30 69° ESE 22:07:56 10° NE
SAR-Lupe-1 4.1 21:58:57 10° S 22:02:32 81° WSW 22:06:09 10° NNW
CZ-4B DEB 2.9 22:00:53 10° S 22:03:51 66° WSW 22:06:50 10° NNW
USA 186 4.0 22:01:21 10° SSW 22:04:02 24° W 22:06:43 10° NW
ERS-1 Rocket 3.1 22:01:53 10° SSE 22:06:48 60° ENE 22:11:45 10° N
H-2A R/B 3.4 22:04:42 10° ESE 22:08:30 23° ENE 22:12:21 10° NNE
COSMOS 2406 3.5 22:04:19 10° S 22:09:48 48° ESE 22:15:16 10° NE
USA 81 4.1 22:10:17 10° S 22:15:33 84° W 22:20:53 10° N
Cosmos 2112 Rocket 4.4 22:11:18 10° S 22:16:10 41° ESE 22:21:03 10° NE
Cosmos 1743 2.7 22:12:30 10° N 22:16:25 86° E 22:20:18 10° S
ARGOS 3.7 22:13:54 13° SE 22:18:30 45° ENE 22:23:38 10° N
Cosmos 773 Rocket 4.2 22:14:43 10° SSW 22:19:51 76° WNW 22:25:01 10° NNE
CZ-3A R/B 2.9 22:18:06 10° S 22:19:43 13° SSE 22:19:43 13° SSE
DNEPR-1 R/B 3.7 22:20:42 10° NNW 22:24:53 62° NE 22:28:12 17° SE
Okean 2 4.4 22:24:43 17° SE 22:26:57 27° E 22:30:26 10° NNE
SL-27 R/B 3.2 22:24:25 13° SSE 22:27:13 35° ESE 22:30:35 10° NE
NOSS 2-2 (D) 3.4 22:23:34 10° SSW 22:27:34 80° SE 22:32:12 10° NE
Cosmos 1536 Rocket 4.3 22:26:18 10° SSW 22:30:32 54° W 22:34:48 10° N
Cosmos 1437 Rocket 3.9 22:27:46 10° NNE 22:31:06 28° ENE 22:32:58 19° ESE
USA 245 3.1 22:32:15 24° ESE 22:33:22 36° ENE 22:35:41 10° N
Cosmos 2184 Rocket 4.1 22:28:22 10° N 22:34:46 84° W 22:41:04 10° S
PSLV R/B 3.2 22:32:25 10° WSW 22:35:29 53° S 22:37:06 24° ESE
YAOGAN 11 4.1 22:32:24 17° SSE 22:35:34 66° ENE 22:39:52 10° N
CENTAUR R/B 3.3 22:27:57 10° NW 22:35:50 75° WSW 22:42:54 16° SSE
Cosmos 2074 Rocket 4.1 22:29:44 10° N 22:36:00 79° W 22:42:14 10° S
Cosmos 405 3.2 22:33:01 10° N 22:36:33 54° ENE 22:38:31 23° SSE
Cosmos 1606 Rocket 4.4 22:32:40 10° N 22:36:37 33° ENE 22:38:50 21° SE
Intercosmos 24 4.0 22:34:53 10° N 22:39:02 54° ENE 22:41:05 23° SSE
Cosmos 1610 Rocket 4.5 22:33:12 10° N 22:39:32 77° E 22:44:48 15° SSE
Aureole 1 Rocket 2.2 22:36:29 10° S 22:39:53 60° ESE 22:42:53 10° NNE
Cosmos 1680 Rocket 3.4 22:34:47 10° SSW 22:40:00 80° ESE 22:45:14 10° NNE
Cosmos 2056 Rocket 4.3 22:36:43 10° N 22:41:34 38° ENE 22:44:38 20° ESE
NOSS 2-2 (C) 3.8 22:42:19 10° SW 22:46:21 69° NW 22:51:03 10° NNE
MetOp-B 4.2 22:42:24 15° SSE 22:46:52 83° WSW 22:52:17 10° NNW
Cosmos 1726 Rocket 4.3 22:43:56 10° N 22:47:58 37° ENE 22:49:54 24° SE
Cosmos 1666 3.2 22:45:37 10° NNW 22:49:18 55° W 22:52:10 15° S
Meteor 2-9 Rocket 4.2 22:45:23 10° NNW 22:50:50 84° W 22:55:15 17° S
Cosmos 2058 Rocket 4.1 22:48:05 10° NNE 22:52:01 31° ENE 22:53:45 23° ESE
Lacrosse 5 rocket 4.4 22:52:21 10° NW 22:55:11 16° N 22:58:04 10° NNE
SPOT 5 2.5 22:53:00 22° SSE 22:55:45 87° WSW 23:00:06 10° NNW
Meteor 2-4 Rocket 3.9 22:50:33 10° SSW 22:56:08 79° W 23:01:58 10° N
Landsat 7 4.3 22:56:13 25° SE 22:58:38 47° ENE 23:03:12 10° N
SPOT 1/Viking Rocket 3.5 22:55:59 23° SSE 22:59:13 73° ENE 23:04:23 10° N
SL-08 RB Rocket 3.6 22:59:02 25° SSE 23:01:39 88° ENE 23:06:08 10° NNW
Cosmos 1025 Rocket 2.9 22:59:36 17° S 23:02:54 86° W 23:07:11 10° N
ASTEX 1 4.5 23:03:16 10° SSW 23:07:55 41° W 23:12:34 10° NNW
Cosmos 1833 Rocket 3.9 23:10:08 22° ESE 23:10:40 22° E 23:14:52 10° NE
Terra 2.3 23:11:45 29° SE 23:13:41 46° ENE 23:18:14 10° N
Tiangong 2 3.3 23:12:37 10° SW 23:13:18 15° SW 23:13:18 15° SW
Cosmos 839 Rocket 4.4 23:11:15 10° NNW 23:17:42 69° NE 23:22:10 26° SE
Cosmos 2154 Rocket 4.2 23:11:53 10° NNW 23:18:14 72° W 23:22:44 20° S
Cosmos 1515 3.6 23:18:34 43° SSE 23:19:40 71° E 23:23:28 10° NNE
Cosmos 1371 Rocket 4.1 23:15:29 10° NNW 23:20:49 77° WSW 23:23:26 31° S
ISS-0.723:25:09ENE23:25:09ENE23:16:19SW
H-2A R/B 2.4 23:22:15 37° SE 23:23:48 56° ENE 23:28:14 10° N
SL-8 Rocket 4.1 23:18:06 10° N 23:24:16 60° ENE 23:27:14 31° SE
Cosmos 2366 rocket 4.4 23:21:49 10° N 23:27:45 47° ENE 23:30:17 31° SE
Meteor 1-4 Rocket 3.5 23:26:31 10° N 23:29:49 32° ENE 23:29:58 32° E
Cosmos 1626 Rocket 4.3 23:35:05 34° E 23:35:19 34° E 23:39:14 10° NNE
OE (NEXTSAT) 4.4 23:32:35 10° WNW 23:36:09 80° NNE 23:36:40 62° E
Cosmos 1980 Rocket 3.7 23:32:01 10° N 23:36:40 25° NE 23:39:36 17° E
Iridium 82 4.5 23:35:16 10° N 23:38:48 79° W 23:39:20 62° SSW
CZ-4C R/B 4.3 23:40:59 28° ENE 23:41:01 28° ENE 23:44:05 10° N
OAO 2 Rocket 4.4 23:40:09 10° WSW 23:43:25 28° SSW 23:43:25 28° SSW
Cosmos 2341 Rocket 4.4 23:38:40 10° NNW 23:44:54 62° W 23:48:37 25° SSW
Meteor 1-22 Rocket 4.4 23:41:09 10° N 23:46:18 51° ENE 23:47:49 39° ESE
H-2A R/B 2.7 23:45:20 27° SSW 23:47:36 46° W 23:52:25 10° NNW
Cosmos 967 Rocket 4.4 23:46:42 15° SSW 23:52:01 85° ESE 23:58:20 10° NE
SL-08 R/B 4.4 23:46:27 10° N 23:52:35 72° E 23:54:50 41° SSE
DMSP B5D2-2 4.2 23:47:38 10° N 23:52:55 73° WNW 23:55:47 28° SSW
